Current weather by "City, St" or "zip code"  
 

Current Conditions: Brooksville-Tampa Bay Regional Airport, FL

Mostly Cloudy


84.0 F

Last Updated on Jul 3 2022, 3:53 pm EDT
Humidity: 84%
Wind Speed: S 8.1 mph
Barometer 30.10 in
Dewpoint: 78.8 F
Visibility: 10.00 mi
Precip: --
Heat Index: 95 F
Wind Chill: NA
Current conditions at:

Brooksville-Tampa Bay Regional Airport, FL (KBKV)

Lat: 28.47361 Lon: 82.45444

Local Radar Image active severe weather and emergency alerts image image weather storm and storm spotter reports image weather observation monitoring service image
Local
Radar
Active
Alerts
Storm Reports Obs
Monitoring

Sign-up For Email & Text Message Weather Alert Notification Services



Advertise Here

Observation History for Brooksville-Tampa Bay Regional Airport, FL


Time Wind
(mph)
Vis
(mi)
Weather Precip (in) Temperature (F) Relative
Humidity
Wind
Chill
(F)
Heat
Index
(F)
Pressure
Air Dwpt altimeter
(in)
sea level
(mb)
Rmks
3:53 pm EDT S 8.1 10.00 Mostly Cloudy -- 84.0 78.8 84% NA 95 30.10 M
1:53 pm EDT 6.9 10.00 Thunderstorm -- 83.0 72.0 70% NA 88 30.12 1019.8
12:53 pm EDT N 0.0 10.00 Partly Cloudy -- 90.0 73.9 59% NA 99 30.11 1019.4
11:53 am EDT S 6.9 10.00 A Few Clouds -- 88.0 77.0 70% NA 100 30.13 1020.0
10:53 am EDT S 6.9 10.00 A Few Clouds -- 86.0 75.9 72% NA 96 30.12 1019.8
9:53 am EDT S 6.9 10.00 Fair -- 85.0 77.0 77% NA 96 30.12 1019.8
8:53 am EDT S 4.6 10.00 Fair -- 81.0 77.0 88% NA 88 30.12 1019.8
7:53 am EDT E 3.5 10.00 Fair -- 76.0 75.0 97% NA NA 30.11 1019.2
6:53 am EDT N 0.0 9.00 Fair -- 73.0 72.0 96% NA NA 30.09 1018.6
5:53 am EDT N 0.0 5.00 Fog/Mist -- 72.0 72.0 100% NA NA 30.06 1017.8
4:53 am EDT N 0.0 9.00 Fair -- 72.0 72.0 100% NA NA 30.07 1017.9
3:53 am EDT N 0.0 10.00 Fair -- 73.0 72.0 96% NA NA 30.07 1018.0
2:53 am EDT N 0.0 9.00 Fair -- 73.0 72.0 96% NA NA 30.07 1018.2
1:53 am EDT N 0.0 10.00 Fair -- 74.0 73.0 97% NA NA 30.09 M
12:53 am EDT N 0.0 10.00 NULL -- 74.0 73.0 97% NA NA 30.10 1018.9
11:53 pm EDT N 0.0 10.00 Fair -- 73.0 73.0 100% NA NA 30.10 1019.0
10:53 pm EDT N 0.0 10.00 Fair -- 75.0 73.9 96% NA NA 30.10 1018.9
9:53 pm EDT N 0.0 10.00 Fair -- 76.0 73.9 94% NA NA 30.09 1018.5
8:53 pm EDT SE 6.9 10.00 Fair -- 77.0 73.9 90% NA NA 30.08 1018.3
7:53 pm EDT E 3.5 10.00 Fair -- 82.0 75.0 79% NA 89 30.06 1017.7
6:53 pm EDT 3.5 10.00 Fair -- 82.0 75.0 79% NA 89 30.05 1017.4
5:53 pm EDT N 0.0 10.00 Fair -- 81.0 73.9 79% NA 86 30.05 1017.3
4:53 pm EDT E 4.6 10.00 Fair -- 78.0 73.9 87% NA NA 30.07 1017.9

Regional Weather Observation


Inverness Airport, FL (KINF)

Mostly Cloudy
81.0 F

Brooksville-Tampa Bay Regional Airport, FL (KBKV)

Mostly Cloudy
84.0 F

Zephyrhills Airport, FL (KZPH)

Light Rain
74.0 F

Tampa, Vandenberg Airport, FL (KVDF)

Light Rain
NULL F

Plant City, Plant City Municipal Airport, FL (KPCM)

Mostly Cloudy
81.0 F

Ocala International Airport - Jim Taylor Field, FL (KOCF)

Fair
85.0 F

Advertise Here


Advertise Here